{"data":{"norad_id":64858,"intl_designator":"2025-152S","name":"STARLINK-34654","alt_names":[],"object_type":"PAYLOAD","status":"ACTIVE","operator":null,"country":"US","launch_date":"2025-07-19","launch_site_code":"AFWTR","launch_vehicle":null,"mission":null,"orbit_class":"UNKNOWN","rcs_meters":null,"size_class":null,"mass_kg":null,"dimensions":null,"purposes":["comms"],"wikipedia_slug":null,"has_3d_model":false,"image_url":null,"decayed_at":null,"tle_current":{"epoch":"2026-05-25T03:04:20.218656Z","epoch_age_seconds":71243,"freshness":"FRESH","line1":"1 64858U 25152S   26145.12801179  .00003921  00000+0  27560-3 0  9990","line2":"2 64858  97.4491   0.5292 0002353  84.3922 275.7573 15.05659415 46924","mean_motion":15.05659415,"eccentricity":0.0002353,"inclination_deg":97.4491,"raan_deg":0.5292,"arg_perigee_deg":84.3922,"mean_anomaly_deg":275.7573,"bstar":0.0002756,"rev_number":4692,"period_min":95.639158873124,"perigee_km":547.8522057952,"apogee_km":551.11234342583,"semimajor_km":6927.6192746105,"source":"CELESTRAK","updated_at":"2026-05-25T13:38:20.615790Z"}}}